#timestamp,LO_Frequency,Hit,StdDev 
1580976275.2,286046974.3,P
1580976295.0,286046977.2,P
1580976295.9,286046977.2,P
1580976315.8,286046977.1,Y
1580976335.6,286046998.5,P
1580976355.4,286046998.4,N
1580976375.3,286046996.5,N
1580976395.1,286046997.1,N
1580976396.0,286046997.1,N
1580976415.8,286046997.0,N
1580976435.7,286046997.1,N
1580976455.5,286046996.9,N
1580976475.3,286046997.1,N
1580976495.2,286046998.0,N
1580976515.0,286046995.3,N
1580976515.9,286046995.3,N
1580976535.8,286046995.8,N
1580976555.6,286046996.3,N
1580976575.4,286046993.7,N
1580976595.3,286046994.0,N
1580976615.1,286046994.7,N
1580976635.8,286046996.4,N
1580976655.7,286046993.8,N
1580976675.5,286046996.0,N
1580976695.4,286046994.3,N
1580976715.2,286046991.7,N
1580976735.0,286046992.1,N
1580976735.9,286046992.1,N
1580976755.8,286046991.8,N
1580976775.6,286046992.2,N
1580976795.4,286046992.2,N
1580976815.3,286046990.5,N
1580976835.1,286046990.6,N
1580976855.9,286046993.2,N
1580976875.7,286046993.2,N
1580976895.5,286046991.3,Y
1580976915.4,286046995.4,P
1580976935.2,286046996.4,P
1580976955.1,286046993.5,P
1580976956.0,286046993.5,Y
1580976975.8,286046998.2,P
1580976995.6,286046998.4,N
1580977015.5,286046998.5,N
1580977035.3,286047000.2,N
1580977055.1,286047002.4,N
1580977075.9,286047004.0,N
1580977095.7,286047002.5,N
1580977115.6,286047000.1,N
1580977135.4,286047000.3,N
1580977155.2,286047000.1,N
1580977175.1,286047001.0,N
1580977176.0,286047001.0,N
1580977195.8,286047001.2,N
1580977215.6,286046998.6,N
1580977235.5,286046998.3,N
1580977255.3,286046999.3,N
1580977275.2,286046999.3,N
1580977295.9,286046996.5,N
1580977315.7,286046999.1,N
1580977335.6,286046999.1,N
1580977355.4,286046997.5,N
1580977375.2,286046996.2,N
1580977395.1,286046993.8,Y
1580977396.0,286046993.8,P
1580977415.8,286046994.4,N
1580977435.7,286046994.8,N
1580977455.5,286046991.9,Y
1580977475.3,286046997.5,P
1580977495.2,286046997.3,N
1580977515.0,286046994.9,P
1580977515.9,286046994.9,Y
1580977535.8,286047001.2,P
1580977555.6,286046998.6,N
1580977575.4,286046998.8,N
1580977595.3,286046999.4,N
1580977615.1,286046996.8,N
1580977635.8,286046997.5,N
1580977655.7,286046997.5,N
1580977675.5,286046995.0,Y
1580977695.4,286046996.6,P
1580977715.2,286046997.7,N
1580977735.0,286046997.2,P
1580977735.9,286046997.2,Y
1580977755.8,286046998.1,P
1580977775.6,286047001.1,P
1580977795.4,286046998.7,N
1580977815.3,286046999.5,N
1580977835.1,286046999.2,N
1580977855.9,286046998.3,N
1580977875.7,286046999.0,N
1580977895.5,286046998.6,N
1580977915.4,286046999.4,N
1580977935.2,286046999.4,N
1580977955.0,286046999.3,N
1580977955.9,286046999.3,N
1580977975.8,286046999.5,N
1580977995.6,286046999.1,N
1580978015.5,286046997.0,Y
1580978035.3,286046996.6,P
1580978055.1,286046996.8,N
1580978075.9,286046996.7,N
1580978095.7,286046999.3,N
1580978115.5,286046999.4,N
1580978135.4,286046997.1,N
1580978155.2,286046997.2,N
1580978175.1,286046997.6,N
1580978176.0,286046997.6,N
1580978195.8,286046995.2,Y
1580978215.6,286046997.1,P
1580978235.5,286046997.7,P
1580978255.3,286046995.1,P
1580978275.2,286046995.4,Y
1580978295.9,286046998.5,P
1580978315.7,286046998.1,N
1580978335.6,286047001.2,N
1580978355.4,286046998.8,N
1580978375.2,286046999.2,N
1580978395.1,286046997.7,N
1580978396.0,286046997.7,N
1580978415.8,286046996.8,N
1580978435.7,286046997.3,N
1580978455.5,286046997.1,N
1580978475.3,286046997.5,N
1580978495.2,286046997.5,N
1580978515.0,286046994.9,Y
1580978515.9,286046994.9,P
1580978535.8,286046999.1,N
1580978555.6,286046999.6,N
1580978575.4,286046997.4,N
1580978595.3,286046998.0,N
1580978615.1,286046995.3,Y
1580978635.9,286046997.2,P
1580978655.7,286046996.5,P
1580978675.5,286046997.5,P
1580978695.4,286046997.1,Y
1580978715.2,286047000.7,P
1580978735.0,286046998.1,N
1580978735.9,286046998.1,N
1580978755.8,286047000.6,N
1580978775.6,286046998.3,N
1580978795.5,286046996.6,N
1580978815.3,286046997.3,N
1580978835.1,286046997.8,N
1580978855.9,286046997.2,N
1580978875.7,286046999.2,N
1580978895.5,286046997.0,N
1580978915.4,286046996.5,N
1580978935.2,286046997.7,N
1580978955.1,286046997.5,N
1580978956.0,286046997.5,N
1580978975